Regional Weather Roundup
Issued by NWS

Home | Current Version | Previous Version | Graphics & Text | Print | Product List | Glossary On
Versions: 1 2 3 4 5 6 7 8 9 10 11 12 13 14 15 16 17 18 19 20 21 22 23 24 25 26 27 28 29 30 31 32 33 34 35 36 37 38 39 40 41 42 43 44 45 46 47 48 49 50
000
ASUS43 KMPX 250701
RWRMN
WEATHER ROUNDUP FOR MINNESOTA
NATIONAL WEATHER SERVICE TWIN CITIES/CHANHASSEN MN
100 AM CST THU DEC 25 2014


NOTE: "FAIR" INDICATES FEW OR NO CLOUDS BELOW 12,000 FEET WITH NO
SIGNIFICANT WEATHER AND/OR OBSTRUCTIONS TO VISIBILITY. N/A MEANS
CURRENT SKY AND/OR WEATHER CONDITIONS ARE NOT AVAILABLE.

MNZ060>063-068>070-250800-
   Twin Cities Metro

CITY           SKY/WX    TMP DP  RH WIND       PRES   REMARKS
TWIN CITIES    CLOUDY    31  27  85 SW13      29.59S WCI  21
ST PAUL        CLOUDY    32  28  85 SW8       29.60F WCI  25
CRYSTAL        CLOUDY    32  27  81 SW10      29.57F WCI  24
BLAINE         CLOUDY    34  32  93 SW12      29.58S WCI  25
LAKEVILLE      CLOUDY    28  27  93 W8        29.60S WCI  20
EDEN PRAIRIE   CLOUDY    31  27  85 SW12      29.58S WCI  22
SOUTH ST PAUL  CLOUDY    32  29  87 SW10      29.59F WCI  24
LAKE ELMO      CLOUDY    32  30  93 SW9       29.59F WCI  24
$$
MNZ001>005-007-008-013>017-022>024-027-028-250800-
   Northwest Minnesota

CITY           SKY/WX    TMP DP  RH WIND       PRES   REMARKS
BEMIDJI        CLOUDY    28  25  86 SW7       29.44S WCI  21
HALLOCK        CLOUDY    30  28  93 W10       29.42R WCI  21
ROSEAU         CLOUDY    28  25  86 SW7       29.41S FOG     WCI  21
WARROAD        CLOUDY    28  25  86 SW8       29.41S FOG     WCI  20
THIEF RVR FALL CLOUDY    28  27  93 SW7       29.43S WCI  21
CROOKSTON      CLOUDY    30  28  93 SW9       29.45S WCI  22
FOSSTON        CLOUDY    27  25  93 SW16      29.45R WCI  14
DETROIT LAKES  CLOUDY    30  28  93 SW10      29.48S WCI  21
MOORHEAD       CLOUDY    30  30 100 S7        29.49S WCI  23
PARK RAPIDS    CLOUDY    30  26  85 SW10      29.46R WCI  21
MAHNOMEN       CLOUDY    28  26  92 SW12      29.46R WCI  18
$$
MNZ006-009>011-018-025>026-250800-
   North Central Minnesota

CITY           SKY/WX    TMP DP  RH WIND       PRES   REMARKS
BAUDETTE       CLOUDY    29  25  85 SW8       29.41S WCI  21
FLAG ISLAND    CLOUDY    28  27  93 SW9       29.39S WCI  20
INTL FALLS     MOCLDY    29  27  92 S3        29.41F
WASKISH        CLOUDY    30  28  93 SW9       29.44R WCI  22
BIG FORK       CLOUDY    30  28  93 SW7       29.44R WCI  23
LONGVILLE      CLOUDY    30  27  86 SW7       29.46R WCI  23
GRAND RAPIDS   CLOUDY    30  27  86 S10G16    29.45S WCI  21
CRANE LAKE     CLOUDY    28  28 100 CALM      29.45F
ORR            CLOUDY    30  27  86 S5        29.41S WCI  25
COOK           CLOUDY    30  28  93 SW5       29.44F WCI  25
WALKER         CLOUDY    28  25  88 SW7       29.45S WCI  21
$$
MNZ012-019>021-037-250800-
   Northeast Minnesota

CITY           SKY/WX    TMP DP  RH WIND       PRES   REMARKS
DULUTH         CLOUDY    32  27  81 W12       29.47F WCI  23
ELY            CLOUDY    30  28  93 SW6       29.43F WCI  24
HIBBING        CLOUDY    32  28  85 SW5       29.45F WCI  27
EVELETH        FLURRIES  32  32 100 SW8       29.46F WCI  25
DULUTH HARBOR  CLOUDY    34  30  86 SW12      29.52S WCI  25
TWO HARBORS    CLOUDY    36  30  80 SW7       29.46F
SILVER BAY     LGT SNOW  34  30  86 S5        29.45F WCI  30
GRAND MARAIS     N/A     33  30  88 CALM      29.47F
G MARAIS ARPRT MIX PCPN  27  25  93 CALM      29.42F
$$
MNZ029>031-032-039>041-046>048-054>057-064-250800-
   West Central Minnesota

CITY           SKY/WX    TMP DP  RH WIND       PRES   REMARKS
FERGUS FALLS   CLOUDY    28  27  93 SW9       29.54S FOG     WCI  20
WHEATON        FLURRIES  28  25  86 S7        29.54S WCI  21
MORRIS         CLOUDY    28  27  93 S8        29.53R WCI  20
ALEXANDRIA     CLOUDY    28  26  92 SW12      29.52R WCI  18
ELBOW LAKE     LGT SNOW  28  27  94 S13       29.52R WCI  17
WADENA         CLOUDY    28  27  93 SW8       29.49R WCI  20
GLENWOOD       CLOUDY    28  27  93 S13       29.53R WCI  18
APPLETON       CLOUDY    30  27  86 S9        29.54R WCI  22
BENSON         CLOUDY    28  27  93 SW10      29.55R WCI  19
ORTONVILLE     CLOUDY    28  25  86 S5        29.53R WCI  23
MADISON          N/A     32  28  86 S8        29.54R WCI  25
WILLMAR        MOCLDY    30  27  86 S3        29.57S
$$
MNZ033>034-036-042>043-049>051-058-059-250800-
   Central Minnesota

CITY           SKY/WX    TMP DP  RH WIND       PRES   REMARKS
ST CLOUD       CLOUDY    33  27  78 SW10      29.55R WCI  25
SAUK CENTRE    CLOUDY    28  27  93 S13G18    29.53S WCI  18
PAYNESVILLE    CLOUDY    27  26  96 S10G16    29.56S WCI  17
AITKIN         CLOUDY    34  27  75 SW8       29.48S WCI  27
PINE RIVER     CLOUDY    28  27  93 S6        29.52R WCI  22
BRAINERD       CLOUDY    30  27  88 S13       29.50S WCI  20
STAPLES        CLOUDY    28  27  93 SW8       29.49S WCI  20
LONG PRAIRIE   CLOUDY    28  27  93 W12       29.52S WCI  18
LITTLE FALLS   CLOUDY    30  28  93 S8        29.53S WCI  23
LITCHFIELD     CLOUDY    30  30 100 S5        29.57S WCI  25
BUFFALO        CLOUDY    31  28  90 SW8       29.58S WCI  23
MAPLE LAKE     CLOUDY    32  30  93 SW6       29.58R WCI  26
$$
MNZ037-044-045-052-053-250800-
   East Central Minnesota

CITY           SKY/WX    TMP DP  RH WIND       PRES   REMARKS
PRINCETON      CLOUDY    32  28  86 SW9       29.56S WCI  24
MORA           CLOUDY    32  28  86 SW9       29.56R WCI  24
CAMBRIDGE      CLOUDY    34  27  75 S6G17     29.55R WCI  29
RUSH CITY      CLOUDY    31  28  90 SW8       29.56R WCI  24
MOOSE LAKE     CLOUDY    32  28  86 SW7       29.50R WCI  26
HINCKLEY       CLOUDY    32  30  93 SW10      29.54S WCI  24
CLOQUET        CLOUDY    32  28  86 SW8       29.49S WCI  25
MCGREGOR       CLOUDY    32  30  93 S10       29.50S WCI  24
$$
MNZ071>073-080-081-089-090-097-098-250800-
   Southwest Minnesota

CITY           SKY/WX    TMP DP  RH WIND       PRES   REMARKS
MONTEVIDEO     CLOUDY    28  28 100 SW8       29.55F WCI  20
GRANITE FALLS  CLOUDY    29  26  91 S10       29.57S WCI  19
CANBY          CLOUDY    30  26  83 SW7       29.53S WCI  23
MARSHALL       FAIR      27  21  80 S12       29.54F WCI  16
REDWOOD FALLS  CLOUDY    29  26  89 S10       29.57F WCI  20
OLIVIA         CLOUDY    28  27  93 S9        29.56F WCI  20
PIPESTONE      CLOUDY    27  27 100 SW10      29.54S FOG     WCI  17
WINDOM         CLOUDY    27  27 100 S9G17     29.58S FOG     WCI  17
WORTHINGTON    CLOUDY    27 -20  12 S14G20    29.57S WCI  15
JACKSON        CLOUDY    28  27  93 S14       29.59F WCI  17
TRACY          PTCLDY    28  26  94 S18       29.54F WCI  15
SLAYTON        CLOUDY    26  26  99 S16       29.56S WCI  13
$$
MNZ065>067-074>077-082>085-091>093-250800-
   South Central Minnesota

CITY           SKY/WX    TMP DP  RH WIND       PRES   REMARKS
MANKATO        CLOUDY    28  25  86 SW13      29.61S WCI  18
NEW ULM        MOCLDY    28  27  93 SW10      29.60S WCI  19
ST JAMES       CLOUDY    28  27  93 S10       29.62S WCI  19
FAIRMONT       CLOUDY    27  23  86 SW14      29.61S WCI  15
GLENCOE        CLOUDY    30  29  96 SW9       29.59R WCI  22
FARIBAULT      CLOUDY    28  27  93 S12       29.61R WCI  18
OWATONNA       CLOUDY    28  27  93 S14G21    29.62S WCI  17
ALBERT LEA     CLOUDY    27  27 100 SW12G17   29.63R FOG     WCI  16
$$
MNZ078>079-086>088-094>096-250800-
   Southeast Minnesota

CITY           SKY/WX    TMP DP  RH WIND       PRES   REMARKS
ROCHESTER      CLOUDY    29  26  89 SW17      29.62S WCI  17
RED WING       CLOUDY    34  28  80 W6        29.61R WCI  29
STANTON        CLOUDY    32  28  86 SW15      29.60R WCI  22
DODGE CENTER   CLOUDY    28  28 100 SW15      29.61R WCI  17
WINONA         CLOUDY    34  30  86 W6        29.65R WCI  29
AUSTIN         CLOUDY    27  27 100 SW13      29.63S WCI  16
PRESTON        CLOUDY    29  27  92 SW10      29.63F WCI  20
$$
ABBREVIATIONS USED IN REMARKS
   TC - TEMPERATURES IN CELSIUS
  WCI - WIND CHILL INDEX
   HX - HEAT INDEX
  VSB - VISIBILITY
$$


USA.gov is the U.S. government's official web portal to all federal, state and local government web resources and services.